Regional Weather Roundup
Issued by NWS Cleveland, OH

Home | Current Version | Previous Version | Graphics & Text | Print | Product List | Glossary On
Versions: 1 2 3 4 5 6 7 8 9 10 11 12 13 14 15 16 17 18 19 20 21 22 23 24 25 26 27 28 29 30 31 32 33 34 35 36 37 38 39 40 41 42 43 44 45 46 47 48 49 50
486
ASUS41 KCLE 231312
RWRCLE
OHIO REGIONAL WEATHER ROUNDUP
NATIONAL WEATHER SERVICE WILMINGTON, OH
800 AM EST FRI FEB 23 2018

NOTE: "FAIR" INDICATES FEW OR NO CLOUDS BELOW 12,000 FEET WITH NO
SIGNIFICANT WEATHER AND/OR OBSTRUCTIONS TO VISIBILITY.

OHZ001>008-015>018-024>027-034-035-043-044-231400-
   NORTHWEST OHIO

CITY           SKY/WX    TMP DP  RH WIND       PRES   REMARKS
DEFIANCE       CLOUDY    38  36  92 SE5       30.15F FOG
FINDLAY        FOG       43  40  89 SE13      30.15F VSB 3/4
TOLEDO EXPRESS LGT RAIN  37  37 100 E6        30.16F FOG
TOLEDO EXEC    FOG       38  36  92 SE8       30.18F VSB 1
LIMA           CLOUDY    44  44 100 SE10      30.14F FOG
$$

OHZ009>014-019>023-028>033-038-089-231400-
   NORTHEAST OHIO

CITY           SKY/WX    TMP DP  RH WIND       PRES   REMARKS
CLE-HOPKINS    CLOUDY    44  43  96 S13       30.24F FOG
CLE-LAKEFRONT  CLOUDY    44  41  89 SE18G29   30.20F
CUY CO. ARPT   CLOUDY    45  45 100 S17       30.23F FOG
LORAIN-ELYRIA  CLOUDY    42  38  85 S10       30.21F FOG
ASHTABULA      CLOUDY    41  41 100 SE12      30.26F FOG
AKRON-CANTON   LGT RAIN  44  42  93 E7        30.26R VSB 1/4
WOOSTER        LGT RAIN  42  42 100 SE6       30.25F VSB 1/4
MANSFIELD      LGT RAIN  45  45 100 S15G23    30.21F
YOUNGSTOWN     LGT RAIN  42  41  96 SE8       30.29R VSB 1/2
$$

OHZ042-051>053-060>062-070>072-077>081-231400-
  SOUTHWEST OHIO

CITY           SKY/WX    TMP DP  RH WIND       PRES   REMARKS
CINC-COVINGTON CLOUDY    54  54 100 SW10      30.21S FOG
CINC-LUNKEN    LGT RAIN  49  49 100 SW5       30.22F FOG
HAMILTON       CLOUDY    53  53 100 VRB6      30.21F
DAYTON         FOG       52  52 100 S10       30.18F VSB 1/4
WRIGHT-PAT AFB CLOUDY    53  51  95 S12       30.17F
DAYTON GENERAL LGT RAIN  56  55  97 S9        30.18F
WILMINGTON     LGT RAIN  50  50 100 SE10      30.20F FOG
$$

OHZ036-037-039>041-045>050-054>059-063>069-073>076-082>088-231400-
  CENTRAL AND SOUTHEAST OHIO

CITY           SKY/WX    TMP DP  RH WIND       PRES   REMARKS
COLUMBUS       RAIN      46  46 100 SE8       30.25F FOG
OSU AIRPORT    LGT RAIN  46  46 100 SE12      30.22F FOG
BOLTON FIELD   RAIN      45  45 100 SE9       30.24F
RICKENBACK AFB LGT RAIN  45  45 100 SE6       30.24F
NEWARK         RAIN      44  43  96 CALM      30.26F FOG
MARION         CLOUDY    47  45  93 S12       30.19F
LANCASTER      RAIN      46  45  96 E6        30.26F FOG
ZANESVILLE     CLOUDY    46  44  93 W3        30.28R FOG
NEW PHILLY     CLOUDY    44  44 100 SE5       30.28F FOG
$$




USA.gov is the U.S. government's official web portal to all federal, state and local government web resources and services.